[[{"header":{"parameterUnit":"m.s-1","parameterCategory":1,"la1":30.2991,"la2":30.254,"lo1":-89.0895,"lo2":-89.0444,"dy":0.0017,"dx":0.0017,"nx":28,"ny":28,"refTime":"2024-04-09T09:00:00:Z","depth":0,"parameterNumber":2,"parameterNumberName":"U-component_of_WINDS"},"data":[0,0,0,0,0,0,0,0,0,0,0,0,0,0,0,0,0,0,0,0,0,0,0,0,0,0,0,0,0,0,0,0,0,0,0,0,0,0,0,0,0,0,0,0,0,0,0,0,0,0,0,0,0,0,0,0,0,0,-7.158,-7.1581,0,-7.1705,-7.1707,-7.1708,-7.168,-7.1678,-7.1676,-7.1673,-7.1797,-7.1802,-7.1807,0,0,0,0,0,0,0,0,0,0,0,0,0,-7.1312,-7.1317,-7.158,-7.1581,-7.1583,-7.1705,-7.1707,-7.1709,-7.1681,-7.1678,-7.1675,-7.1672,-7.1795,-7.1801,-7.1808,0,0,0,0,0,0,0,0,0,0,0,0,0,-7.1432,-7.1319,-7.1579,-7.1584,-7.1586,-7.1705,-7.1707,-7.1709,-7.1681,-7.1678,-7.1674,-7.1671,-7.1793,-7.1801,-7.1809,-7.193,0,0,-7.1834,-7.1837,0,0,0,0,0,0,0,0,-7.1425,-7.1442,-7.1582,-7.1584,-7.1586,-7.1674,-7.1658,-7.1783,-7.1682,-7.1645,-7.1673,-7.1669,-7.1758,-7.1769,-7.18,-7.1936,-7.1941,-7.1835,-7.184,-7.1843,-7.1845,0,0,0,0,0,0,0,-7.1417,-7.1436,-7.1629,-7.1584,-7.1586,-7.1578,-7.1591,-7.1681,-7.1719,-7.1648,-7.1646,-7.1662,-7.1759,-7.1792,-7.1803,-7.1943,-7.1834,-7.1842,-7.1847,-7.185,-7.2183,-7.2187,0,0,0,0,0,0,-7.1408,-7.143,-7.1625,-7.1633,-7.1495,-7.1586,-7.1601,-7.1649,-7.1719,-7.1726,-7.1664,-7.166,-7.178,-7.1793,-7.1807,-7.1952,-7.1843,-7.1851,-7.1855,-7.2179,-7.2184,-7.2189,0,0,0,0,0,0,-7.1402,-7.1425,-7.162,-7.1531,-7.1555,-7.1594,-7.1649,-7.1653,-7.1687,-7.1731,-7.1737,-7.1692,-7.1778,-7.1796,-7.19,-7.1956,-7.1854,-7.1862,-7.2175,-7.2181,-7.2186,-7.2243,0,0,0,0,0,0,-7.1394,-7.1423,-7.147,-7.1532,-7.156,-7.1712,-7.1652,-7.1658,-7.1702,-7.1697,-7.1759,-7.1765,-7.1776,-7.1888,-7.1908,-7.1965,-7.1868,-7.217,-7.2178,-7.2185,-7.2237,-7.225,-7.2262,0,0,0,0,0,-7.1385,-7.1481,-7.1473,-7.1497,-7.162,-7.1715,-7.1731,-7.1743,-7.1706,-7.1753,-7.1782,-7.1763,-7.1948,-7.1899,-7.1921,-7.1982,-7.2166,-7.2175,-7.2184,-7.2231,-7.2248,-7.2262,0,0,0,0,0,0,-7.1422,-7.1489,-7.1481,-7.16,-7.1652,-7.171,-7.1769,-7.1761,-7.1823,-7.1816,-7.1827,-7.1841,-7.1947,-7.1976,-7.192,-7.2103,-7.2051,-7.2065,-7.2079,-7.2096,-7.2109,-7.2097,-7.1875,0,0,0,0,0,-7.1444,-7.1518,-7.1572,-7.1671,-7.1698,-7.173,-7.1772,-7.1777,-7.1831,-7.1852,-7.1889,-7.1941,-7.201,-7.2055,-7.2122,-7.2242,-7.2254,-7.2295,-7.2308,-7.2319,-7.2329,-7.2393,-7.2412,-7.2218,-7.2218,-7.2217,0,0,-7.149,-7.1536,-7.1581,-7.168,-7.1721,-7.1795,-7.1748,-7.1829,-7.1883,-7.1864,-7.1964,-7.1994,-7.2052,-7.2165,-7.2216,-7.2192,-7.2386,-7.233,-7.2338,-7.2343,-7.2404,-7.2423,-7.2439,-7.2224,-7.2222,-7.2222,0,0,-7.1611,-7.1654,-7.1741,-7.1785,-7.1849,-7.1869,-7.1891,-7.1951,-7.197,-7.2072,-7.2059,-7.2124,-7.2244,-7.2286,-7.2323,-7.2463,-7.2447,-7.2485,-7.255,-7.2613,-7.2628,-7.2642,-7.2689,-7.2706,-7.2496,-7.2496,-7.2496,0,-7.1659,-7.1771,-7.1787,-7.1869,-7.1912,-7.1901,-7.1989,-7.2029,-7.2111,-7.214,-7.2113,-7.2264,-7.2303,-7.2424,-7.2459,-7.249,-7.2513,-7.2475,-7.2625,-7.2639,-7.2652,-7.2697,-7.2715,-7.25,-7.2499,-7.2499,-7.2499,0,-7.1826,-7.1905,-7.1967,-7.2048,-7.2099,-7.2183,-7.221,-7.226,-7.2262,-7.2285,-7.2389,-7.2436,-7.2511,-7.2542,-7.2544,-7.2664,-7.2646,-7.2623,-7.257,-7.2674,-7.2716,-7.2734,-7.2505,-7.2504,-7.2503,-7.2502,0,0,-7.1969,-7.2061,-7.2083,-7.2119,-7.2191,-7.2251,-7.2335,-7.2411,-7.2452,-7.251,-7.2579,-7.2682,-7.266,-7.2703,-7.271,-7.2766,-7.2871,-7.2734,-7.2736,-7.2755,-7.3004,-7.3018,-7.3038,-7.2863,-7.2867,-7.2869,-7.2998,0,-7.2094,-7.2243,-7.2261,-7.2392,-7.2464,-7.2457,-7.253,-7.2581,-7.2606,-7.2669,-7.2697,-7.2769,-7.2736,-7.2761,-7.2817,-7.2846,-7.292,-7.2838,-7.2924,-7.2927,-7.2906,-7.3061,-7.3077,-7.3195,-7.3015,-7.3018,-7.302,0,-7.2259,-7.2323,-7.2462,-7.2524,-7.2555,-7.262,-7.2691,-7.2753,-7.2811,-7.2825,-7.2874,-7.2874,-7.296,-7.2909,-7.3025,-7.2969,-7.3006,-7.3026,-7.3031,-7.3036,-7.2976,-7.3067,-7.3234,-7.325,-7.3047,-7.3044,-7.3042,0,-7.2345,-7.2467,-7.2566,-7.2598,-7.2673,-7.2719,-7.2753,-7.2807,-7.2852,-7.2914,-7.2943,-7.3014,-7.3052,-7.3107,-7.3126,-7.3087,-7.3241,-7.3191,-7.3253,-7.3252,-7.3281,-7.3278,-7.3453,-7.3312,-7.3312,-7.3312,-7.3311,0,-7.248,-7.2565,-7.2606,-7.2666,-7.2761,-7.2781,-7.2873,-7.2905,-7.2954,-7.3019,-7.3018,-7.3079,-7.3103,-7.3168,-7.3184,-7.3276,-7.3295,-7.3307,-7.3309,-7.3305,-7.3303,-7.3326,-7.3316,-7.3317,-7.3316,-7.3315,-7.3314,0,-7.2591,-7.2622,-7.2729,-7.2793,-7.2811,-7.2878,-7.2931,-7.2989,-7.3015,-7.3098,-7.3119,-7.3158,-7.3235,-7.3261,-7.3353,-7.3364,-7.3471,-7.3468,-7.3451,-7.3451,-7.3509,-7.3502,-7.3701,-7.3727,-7.3573,-7.3575,-7.3576,0,-7.2673,-7.2738,-7.281,-7.2854,-7.289,-7.2962,-7.3008,-7.3031,-7.3078,-7.315,-7.3199,-7.3276,-7.3337,-7.3459,-7.3495,-7.3566,-7.3563,-7.3628,-7.3573,-7.3566,-7.3559,-7.3554,-7.3559,-7.3636,-7.3638,-7.3639,-7.364,0,-7.2814,-7.2827,-7.2894,-7.2968,-7.3023,-7.3082,-7.3138,-7.3174,-7.3206,-7.3259,-7.3338,-7.3386,-7.3482,-7.3557,-7.3629,-7.3662,-7.3656,-7.3659,-7.3676,-7.3669,-7.3655,-7.3661,-7.3475,-7.3652,-7.3651,-7.365,-7.365,-7.3649,-7.2911,-7.2968,-7.3028,-7.3103,-7.3148,-7.3202,-7.3259,-7.3293,-7.336,-7.344,-7.345,-7.3534,-7.3591,-7.3688,-7.3725,-7.379,-7.3771,-7.3797,-7.3803,-7.3808,-7.3811,-7.3649,-7.3804,-7.3803,-7.3803,-7.3803,-7.3803,0,-7.3049,-7.3088,-7.3157,-7.3237,-7.3296,-7.3289,-7.3352,-7.3401,-7.3475,-7.353,-7.3592,-7.3682,-7.3755,-7.3799,-7.3872,-7.3916,-7.3915,-7.3934,-7.3929,-7.3936,-7.3825,-7.3801,-7.3933,-7.3933,-7.3933,-7.3933,-7.3933,-7.3933,-7.3128,-7.3224,-7.3244,-7.3363,-7.3401,-7.3485,-7.3521,-7.3569,-7.3613,-7.3714,-7.3776,-7.3805,-7.3855,-7.3932,-7.3998,-7.4009,-7.4034,-7.4055,-7.4063,-7.3958,-7.3944,-7.3931,-7.3908,-7.4061,-7.4061,-7.4169,-7.4169,-7.417]},{"header":{"parameterUnit":"m.s-1","parameterCategory":1,"la1":30.2991,"la2":30.254,"lo1":-89.0895,"lo2":-89.0444,"dy":0.0017,"dx":0.0017,"nx":28,"ny":28,"refTime":"2024-04-09T09:00:00:Z","depth":0,"parameterNumber":3,"parameterNumberName":"V-component_of_WINDS"},"data":[0,0,0,0,0,0,0,0,0,0,0,0,0,0,0,0,0,0,0,0,0,0,0,0,0,0,0,0,0,0,0,0,0,0,0,0,0,0,0,0,0,0,0,0,0,0,0,0,0,0,0,0,0,0,0,0,0,0,5.2213,5.2214,0,5.2286,5.2287,5.2288,5.2274,5.2272,5.2271,5.227,5.2341,5.2344,5.2347,0,0,0,0,0,0,0,0,0,0,0,0,0,5.2062,5.2065,5.2213,5.2214,5.2215,5.2286,5.2287,5.2288,5.2274,5.2272,5.2271,5.2269,5.234,5.2343,5.2347,0,0,0,0,0,0,0,0,0,0,0,0,0,5.213,5.2066,5.2213,5.2217,5.2218,5.2286,5.2287,5.2288,5.2274,5.2272,5.227,5.2269,5.2339,5.2343,5.2348,5.2415,0,0,5.2362,5.2364,0,0,0,0,0,0,0,0,5.2126,5.2136,5.2216,5.2217,5.2218,5.2269,5.2259,5.2331,5.2275,5.2253,5.227,5.2268,5.2318,5.2324,5.2342,5.2418,5.2421,5.2362,5.2365,5.2367,5.2368,0,0,0,0,0,0,0,5.2122,5.2133,5.2242,5.2217,5.2218,5.2215,5.2222,5.2273,5.2295,5.2255,5.2254,5.2263,5.2319,5.2338,5.2344,5.2423,5.2362,5.2366,5.2369,5.2371,5.256,5.2563,0,0,0,0,0,0,5.2116,5.2129,5.224,5.2244,5.2167,5.2219,5.2227,5.2254,5.2295,5.2299,5.2264,5.2262,5.2331,5.2338,5.2346,5.2429,5.2367,5.2371,5.2374,5.2558,5.2561,5.2563,0,0,0,0,0,0,5.2113,5.2126,5.2237,5.2186,5.22,5.2224,5.2254,5.2257,5.2276,5.2302,5.2306,5.228,5.233,5.234,5.2399,5.2432,5.2373,5.2378,5.2556,5.2559,5.2562,5.2595,0,0,0,0,0,0,5.2109,5.2125,5.2151,5.2187,5.2203,5.2289,5.2256,5.226,5.2285,5.2282,5.2318,5.2322,5.2329,5.2392,5.2404,5.2437,5.2381,5.2553,5.2557,5.2561,5.2592,5.26,5.2606,0,0,0,0,0,5.2103,5.2156,5.2152,5.2166,5.2236,5.2291,5.23,5.2307,5.2287,5.2314,5.2331,5.2321,5.2426,5.2398,5.2411,5.2446,5.2551,5.2556,5.2561,5.2588,5.2598,5.2606,0,0,0,0,0,0,5.2121,5.2161,5.2157,5.2223,5.2254,5.2288,5.2321,5.2317,5.2353,5.2349,5.2356,5.2365,5.2425,5.2442,5.241,5.2515,5.2486,5.2493,5.2502,5.2512,5.2519,5.2514,5.2385,0,0,0,0,0,5.2133,5.2175,5.2207,5.2262,5.2278,5.2298,5.2321,5.2325,5.2357,5.2369,5.239,5.2421,5.2461,5.2487,5.2525,5.2594,5.2602,5.2625,5.2632,5.2638,5.2645,5.2685,5.2695,5.258,5.258,5.258,0,0,5.2158,5.2185,5.221,5.2267,5.2291,5.2334,5.2308,5.2354,5.2386,5.2376,5.2434,5.2451,5.2485,5.255,5.258,5.2566,5.2679,5.2645,5.2649,5.2653,5.2691,5.2702,5.2711,5.2583,5.2583,5.2582,0,0,5.2225,5.2249,5.2299,5.2325,5.2362,5.2375,5.2387,5.2423,5.2435,5.2493,5.2487,5.2525,5.2594,5.2619,5.2641,5.2722,5.2714,5.2734,5.2772,5.2811,5.282,5.2828,5.2858,5.2868,5.274,5.274,5.274,0,5.225,5.2315,5.2325,5.2373,5.2398,5.2393,5.2444,5.2468,5.2516,5.2533,5.2517,5.2606,5.2628,5.27,5.272,5.2737,5.2752,5.2729,5.2818,5.2826,5.2834,5.2862,5.2874,5.2743,5.2742,5.2742,5.2742,0,5.2346,5.2391,5.2427,5.2476,5.2505,5.2554,5.2571,5.26,5.2602,5.2617,5.2678,5.2705,5.275,5.2767,5.2768,5.284,5.2831,5.2816,5.2787,5.2847,5.2874,5.2885,5.2746,5.2745,5.2744,5.2744,0,0,5.2424,5.248,5.2493,5.2516,5.2559,5.2594,5.2643,5.2689,5.2714,5.2748,5.279,5.285,5.2838,5.2863,5.2867,5.2901,5.2965,5.2883,5.2884,5.2898,5.3047,5.3058,5.307,5.296,5.2962,5.2964,5.3044,0,5.2496,5.2584,5.2596,5.2674,5.2717,5.2714,5.2757,5.2788,5.2804,5.2842,5.2859,5.2902,5.2882,5.2898,5.2931,5.295,5.2995,5.2944,5.3,5.3001,5.2991,5.3084,5.3095,5.3169,5.3055,5.3057,5.3058,0,5.2591,5.263,5.2713,5.2753,5.2771,5.281,5.2854,5.2891,5.2926,5.2935,5.2965,5.2966,5.3017,5.2987,5.3058,5.3023,5.3047,5.306,5.3063,5.3068,5.3033,5.3093,5.3193,5.3205,5.3074,5.3073,5.3072,0,5.2642,5.2715,5.2775,5.2794,5.2841,5.2869,5.2889,5.2923,5.2951,5.2989,5.3007,5.305,5.3074,5.3108,5.312,5.3096,5.3192,5.3161,5.3201,5.3201,5.3221,5.3219,5.3327,5.3235,5.3235,5.3235,5.3235,0,5.2721,5.2772,5.2799,5.2835,5.2893,5.2906,5.2963,5.2982,5.3013,5.3053,5.3053,5.3091,5.3105,5.3146,5.3156,5.3215,5.3225,5.3234,5.3236,5.3234,5.3233,5.325,5.3245,5.3238,5.3237,5.3237,5.3236,0,5.2787,5.2807,5.2872,5.2912,5.2924,5.2965,5.2999,5.3034,5.3051,5.3102,5.3115,5.314,5.3188,5.3205,5.3262,5.3269,5.3338,5.3335,5.3326,5.3327,5.3366,5.3362,5.3488,5.3506,5.3402,5.3403,5.3404,0,5.2837,5.2877,5.2922,5.295,5.2972,5.3017,5.3046,5.306,5.309,5.3135,5.3166,5.3214,5.3253,5.333,5.3353,5.3398,5.3397,5.3438,5.3403,5.3401,5.3399,5.3396,5.3401,5.3444,5.3445,5.3446,5.3447,0,5.2923,5.2932,5.2974,5.302,5.3056,5.3092,5.3128,5.3151,5.317,5.3204,5.3254,5.3285,5.3345,5.3393,5.344,5.346,5.3458,5.3458,5.347,5.3468,5.3462,5.3467,5.3345,5.3455,5.3454,5.3453,5.3453,5.3453,5.2983,5.3019,5.3058,5.3105,5.3134,5.3168,5.3205,5.3227,5.3269,5.332,5.3326,5.338,5.3417,5.3479,5.3502,5.3545,5.3533,5.355,5.3554,5.3558,5.3562,5.3455,5.3553,5.3553,5.3552,5.3552,5.3552,0,5.3071,5.3096,5.314,5.3191,5.3229,5.3224,5.3264,5.3296,5.3344,5.3379,5.3419,5.3477,5.3524,5.3552,5.36,5.3629,5.3629,5.3641,5.3639,5.3644,5.3569,5.3554,5.364,5.364,5.364,5.364,5.364,5.364,5.3121,5.3183,5.3196,5.3272,5.3297,5.3351,5.3375,5.3406,5.3434,5.35,5.354,5.3559,5.3591,5.3641,5.3685,5.3692,5.371,5.3723,5.3729,5.3658,5.3649,5.364,5.3627,5.3727,5.3727,5.3801,5.3802,5.3802]}]]